NORTHEAST SUFFOLK  -  Rip Current Statement Rip Current Statement        NORTHERN NASSAU  -  Rip Current Statement Rip Current Statement        NORTHERN QUEENS  -  Rip Current Statement Rip Current Statement     Air Quality Alert Air Quality Alert        NORTHWEST SUFFOLK  -  Rip Current Statement Rip Current Statement        SOUTHEAST SUFFOLK  -  Rip Current Statement Rip Current Statement        SOUTHERN NASSAU  -  Rip Current Statement Rip Current Statement        SOUTHERN QUEENS  -  Rip Current Statement Rip Current Statement     Air Quality Alert Air Quality Alert        SOUTHWEST SUFFOLK  -  Rip Current Statement Rip Current Statement      

Active alerts

Northern Queens
  Details for Northern Queens Rip Current Statement  +1 additional alert
Southern Queens
  Details for Southern Queens Rip Current Statement  +1 additional alert
Northern Nassau
  Details for Northern Nassau Rip Current Statement
Southern Nassau
  Details for Southern Nassau Rip Current Statement
Northwest Suffolk
  Details for Northwest Suffolk Rip Current Statement
Southwest Suffolk
  Details for Southwest Suffolk Rip Current Statement
Northeast Suffolk
  Details for Northeast Suffolk Rip Current Statement
Southeast Suffolk
  Details for Southeast Suffolk Rip Current Statement


WXM80 ListenWXM80 Stop

You find our weather info also at:

UK Metoffice

WeatherCloud

Weather Underground

Northeastern Weather Network

AWEKAS

Citizen Weather Observer Program (CWOP)

HAMweather, WeatherForYou, PWS Weather


Weather Underground History page Text

Daily Summary for January 23, 2017 Units:  Both    English   Metric
« Previous Day
Next Day »
Daily Weekly Monthly Yearly Custom
  High: Low: Average:
Temperature: 42.8 °F /  6 °C 36.9 °F /  2.7 °C 39.8 °F /  4.3 °C
Dew Point: 41.2 °F /  5.1 °C 34.3 °F /  1.3 °C 36.7 °F /  2.6 °C
Humidity: 96 % 80 % 89 %
Wind Speed: 24.4 mph /  39.3 km/h - 15.3 mph /  24.6 km/h
Wind Gust: 38.0 mph /  61.2 km/h - -
Wind:- - ENE
Pressure: 29.85 in /  1010.7 hPa 29.45 in /  997.2 hPa -
Precipitation: 0.63 in /  16 mm    
Historical Graphs
 
 
Tabular Data for January 23, 2017
Time Temperature Dew Point Pressure Wind Wind Speed Wind Gust Humidity Rainfall Rate (Hourly)
00:02 42.8 °F /  6 °C 41.2 °F /  5.1 °C 29.81 in /  1009.4 hPa East 10.9 mph /  17.5 km/h 15.0 mph /  24.1 km/h 94 % 0.00 in /  0 mm
00:07 42.8 °F /  6 °C 41.2 °F /  5.1 °C 29.81 in /  1009.4 hPa ENE 8.8 mph /  14.2 km/h 11.5 mph /  18.5 km/h 94 % 0.00 in /  0 mm
00:12 42.7 °F /  5.9 °C 41.1 °F /  5.1 °C 29.81 in /  1009.4 hPa ENE 7.7 mph /  12.4 km/h 13.0 mph /  20.9 km/h 94 % 0.00 in /  0 mm
00:17 42.6 °F /  5.9 °C 41.0 °F /  5 °C 29.81 in /  1009.4 hPa ENE 9.9 mph /  15.9 km/h 12.7 mph /  20.4 km/h 94 % 0.00 in /  0 mm
00:22 42.5 °F /  5.8 °C 40.9 °F /  4.9 °C 29.81 in /  1009.4 hPa ENE 11.1 mph /  17.9 km/h 16.0 mph /  25.7 km/h 94 % 0.00 in /  0 mm
00:27 42.5 °F /  5.8 °C 40.9 °F /  4.9 °C 29.81 in /  1009.4 hPa ENE 9.5 mph /  15.3 km/h 15.0 mph /  24.1 km/h 94 % 0.00 in /  0 mm
00:32 42.6 °F /  5.9 °C 41.0 °F /  5 °C 29.81 in /  1009.4 hPa East 11.2 mph /  18 km/h 13.8 mph /  22.2 km/h 94 % 0.00 in /  0 mm
00:37 42.6 °F /  5.9 °C 41.0 °F /  5 °C 29.81 in /  1009.4 hPa East 10.3 mph /  16.6 km/h 15.0 mph /  24.1 km/h 94 % 0.00 in /  0 mm
00:42 42.6 °F /  5.9 °C 41.0 °F /  5 °C 29.81 in /  1009.4 hPa ENE 10.6 mph /  17.1 km/h 12.7 mph /  20.4 km/h 94 % 0.00 in /  0 mm
00:47 42.5 °F /  5.8 °C 40.9 °F /  4.9 °C 29.81 in /  1009.4 hPa ENE 11.3 mph /  18.2 km/h 15.0 mph /  24.1 km/h 94 % 0.00 in /  0 mm
00:52 42.5 °F /  5.8 °C 40.9 °F /  4.9 °C 29.81 in /  1009.4 hPa East 9.3 mph /  15 km/h 12.7 mph /  20.4 km/h 94 % 0.00 in /  0 mm
00:57 42.5 °F /  5.8 °C 40.9 °F /  4.9 °C 29.81 in /  1009.4 hPa ENE 10.5 mph /  16.9 km/h 15.0 mph /  24.1 km/h 94 % 0.00 in /  0 mm
01:02 42.5 °F /  5.8 °C 40.9 °F /  4.9 °C 29.81 in /  1009.4 hPa ENE 8.9 mph /  14.3 km/h 11.5 mph /  18.5 km/h 94 % 0.00 in /  0 mm
01:07 42.4 °F /  5.8 °C 40.8 °F /  4.9 °C 29.81 in /  1009.4 hPa East 9.8 mph /  15.8 km/h 12.7 mph /  20.4 km/h 94 % 0.00 in /  0 mm
01:12 42.3 °F /  5.7 °C 40.7 °F /  4.8 °C 29.81 in /  1009.4 hPa ENE 11.1 mph /  17.9 km/h 15.0 mph /  24.1 km/h 94 % 0.00 in /  0 mm
01:17 42.3 °F /  5.7 °C 40.7 °F /  4.8 °C 29.81 in /  1009.4 hPa East 8.9 mph /  14.3 km/h 12.7 mph /  20.4 km/h 94 % 0.00 in /  0 mm
01:22 42.2 °F /  5.7 °C 40.6 °F /  4.8 °C 29.81 in /  1009.4 hPa ENE 10.9 mph /  17.5 km/h 18.0 mph /  29 km/h 94 % 0.00 in /  0 mm
01:27 42.2 °F /  5.7 °C 40.6 °F /  4.8 °C 29.81 in /  1009.4 hPa ENE 9.9 mph /  15.9 km/h 12.7 mph /  20.4 km/h 94 % 0.00 in /  0 mm
01:33 42.1 °F /  5.6 °C 40.5 °F /  4.7 °C 29.81 in /  1009.4 hPa East 11.8 mph /  19 km/h 16.1 mph /  25.9 km/h 94 % 0.00 in /  0 mm
01:38 42.1 °F /  5.6 °C 40.8 °F /  4.9 °C 29.82 in /  1009.7 hPa East 10.0 mph /  16.1 km/h 12.0 mph /  19.3 km/h 95 % 0.00 in /  0 mm
01:43 42.0 °F /  5.6 °C 40.7 °F /  4.8 °C 29.82 in /  1009.7 hPa East 10.1 mph /  16.3 km/h 14.0 mph /  22.5 km/h 95 % 0.00 in /  0 mm
01:48 42.0 °F /  5.6 °C 40.7 °F /  4.8 °C 29.83 in /  1010 hPa ENE 11.8 mph /  19 km/h 15.0 mph /  24.1 km/h 95 % 0.00 in /  0 mm
01:53 42.0 °F /  5.6 °C 40.7 °F /  4.8 °C 29.83 in /  1010 hPa ENE 11.8 mph /  19 km/h 17.3 mph /  27.8 km/h 95 % 0.00 in /  0 mm
01:58 41.9 °F /  5.5 °C 40.6 °F /  4.8 °C 29.83 in /  1010 hPa NE 10.8 mph /  17.4 km/h 17.3 mph /  27.8 km/h 95 % 0.00 in /  0 mm
02:03 41.9 °F /  5.5 °C 40.6 °F /  4.8 °C 29.83 in /  1010 hPa ENE 12.7 mph /  20.4 km/h 18.4 mph /  29.6 km/h 95 % 0.00 in /  0 mm
02:08 41.9 °F /  5.5 °C 40.6 °F /  4.8 °C 29.83 in /  1010 hPa East 12.0 mph /  19.3 km/h 18.0 mph /  29 km/h 95 % 0.00 in /  0 mm
02:13 41.9 °F /  5.5 °C 40.6 °F /  4.8 °C 29.84 in /  1010.4 hPa NE 11.6 mph /  18.7 km/h 15.0 mph /  24.1 km/h 95 % 0.00 in /  0 mm
02:18 41.9 °F /  5.5 °C 40.3 °F /  4.6 °C 29.83 in /  1010 hPa ENE 11.9 mph /  19.2 km/h 18.0 mph /  29 km/h 94 % 0.00 in /  0 mm
02:23 42.0 °F /  5.6 °C 40.4 °F /  4.7 °C 29.82 in /  1009.7 hPa ENE 12.7 mph /  20.4 km/h 18.4 mph /  29.6 km/h 94 % 0.00 in /  0 mm
02:28 41.9 °F /  5.5 °C 40.3 °F /  4.6 °C 29.82 in /  1009.7 hPa ENE 11.2 mph /  18 km/h 13.8 mph /  22.2 km/h 94 % 0.00 in /  0 mm
02:33 41.9 °F /  5.5 °C 40.0 °F /  4.4 °C 29.81 in /  1009.4 hPa ENE 13.7 mph /  22 km/h 20.7 mph /  33.3 km/h 93 % 0.00 in /  0 mm
02:38 41.9 °F /  5.5 °C 40.0 °F /  4.4 °C 29.81 in /  1009.4 hPa ENE 13.8 mph /  22.2 km/h 17.3 mph /  27.8 km/h 93 % 0.00 in /  0 mm
02:43 41.9 °F /  5.5 °C 40.0 °F /  4.4 °C 29.80 in /  1009 hPa ENE 11.8 mph /  19 km/h 15.0 mph /  24.1 km/h 93 % 0.00 in /  0 mm
02:48 41.9 °F /  5.5 °C 40.0 °F /  4.4 °C 29.80 in /  1009 hPa East 14.7 mph /  23.7 km/h 23.0 mph /  37 km/h 93 % 0.00 in /  0 mm
02:53 41.9 °F /  5.5 °C 40.0 °F /  4.4 °C 29.80 in /  1009 hPa NNE 15.9 mph /  25.6 km/h 21.9 mph /  35.2 km/h 93 % 0.00 in /  0 mm
02:58 41.9 °F /  5.5 °C 40.0 °F /  4.4 °C 29.80 in /  1009 hPa ENE 11.8 mph /  19 km/h 19.6 mph /  31.5 km/h 93 % 0.00 in /  0 mm
03:03 41.9 °F /  5.5 °C 40.0 °F /  4.4 °C 29.80 in /  1009 hPa East 12.9 mph /  20.8 km/h 19.6 mph /  31.5 km/h 93 % 0.00 in /  0 mm
03:09 41.9 °F /  5.5 °C 39.7 °F /  4.3 °C 29.80 in /  1009 hPa NE 13.6 mph /  21.9 km/h 20.7 mph /  33.3 km/h 92 % 0.00 in /  0 mm
03:14 41.8 °F /  5.4 °C 39.6 °F /  4.2 °C 29.80 in /  1009 hPa ENE 12.9 mph /  20.8 km/h 19.6 mph /  31.5 km/h 92 % 0.00 in /  0 mm
03:19 41.8 °F /  5.4 °C 39.6 °F /  4.2 °C 29.80 in /  1009 hPa East 12.0 mph /  19.3 km/h 18.4 mph /  29.6 km/h 92 % 0.00 in /  0 mm
03:24 41.8 °F /  5.4 °C 39.6 °F /  4.2 °C 29.81 in /  1009.4 hPa ENE 12.0 mph /  19.3 km/h 22.0 mph /  35.4 km/h 92 % 0.00 in /  0 mm
03:29 41.8 °F /  5.4 °C 39.6 °F /  4.2 °C 29.81 in /  1009.4 hPa ENE 12.0 mph /  19.3 km/h 15.0 mph /  24.1 km/h 92 % 0.00 in /  0 mm
03:34 41.8 °F /  5.4 °C 39.6 °F /  4.2 °C 29.82 in /  1009.7 hPa ENE 12.0 mph /  19.3 km/h 16.0 mph /  25.7 km/h 92 % 0.00 in /  0 mm
03:39 41.7 °F /  5.4 °C 39.5 °F /  4.2 °C 29.82 in /  1009.7 hPa ENE 12.0 mph /  19.3 km/h 17.0 mph /  27.4 km/h 92 % 0.00 in /  0 mm
03:44 41.7 °F /  5.4 °C 39.5 °F /  4.2 °C 29.82 in /  1009.7 hPa ENE 11.3 mph /  18.2 km/h 16.1 mph /  25.9 km/h 92 % 0.00 in /  0 mm
03:49 41.7 °F /  5.4 °C 39.5 °F /  4.2 °C 29.82 in /  1009.7 hPa East 12.0 mph /  19.3 km/h 15.0 mph /  24.1 km/h 92 % 0.00 in /  0 mm
03:54 41.7 °F /  5.4 °C 39.5 °F /  4.2 °C 29.83 in /  1010 hPa East 13.0 mph /  20.9 km/h 17.0 mph /  27.4 km/h 92 % 0.00 in /  0 mm
03:59 41.6 °F /  5.3 °C 39.4 °F /  4.1 °C 29.82 in /  1009.7 hPa East 12.1 mph /  19.5 km/h 15.0 mph /  24.1 km/h 92 % 0.00 in /  0 mm
04:04 41.6 °F /  5.3 °C 39.4 °F /  4.1 °C 29.83 in /  1010 hPa East 13.2 mph /  21.2 km/h 19.6 mph /  31.5 km/h 92 % 0.00 in /  0 mm
04:09 41.7 °F /  5.4 °C 39.5 °F /  4.2 °C 29.83 in /  1010 hPa East 14.0 mph /  22.5 km/h 18.4 mph /  29.6 km/h 92 % 0.00 in /  0 mm
04:14 41.7 °F /  5.4 °C 39.5 °F /  4.2 °C 29.82 in /  1009.7 hPa NE 13.0 mph /  20.9 km/h 17.3 mph /  27.8 km/h 92 % 0.00 in /  0 mm
04:19 41.6 °F /  5.3 °C 39.4 °F /  4.1 °C 29.82 in /  1009.7 hPa ENE 11.3 mph /  18.2 km/h 13.8 mph /  22.2 km/h 92 % 0.00 in /  0 mm
04:24 41.5 °F /  5.3 °C 39.3 °F /  4.1 °C 29.82 in /  1009.7 hPa ENE 12.2 mph /  19.6 km/h 15.0 mph /  24.1 km/h 92 % 0.00 in /  0 mm
04:29 41.4 °F /  5.2 °C 39.3 °F /  4.1 °C 29.82 in /  1009.7 hPa ENE 11.3 mph /  18.2 km/h 17.3 mph /  27.8 km/h 92 % 0.00 in /  0 mm
04:34 41.4 °F /  5.2 °C 39.0 °F /  3.9 °C 29.82 in /  1009.7 hPa ENE 12.8 mph /  20.6 km/h 18.4 mph /  29.6 km/h 91 % 0.00 in /  0 mm
04:39 41.4 °F /  5.2 °C 39.0 °F /  3.9 °C 29.82 in /  1009.7 hPa ENE 14.1 mph /  22.7 km/h 19.0 mph /  30.6 km/h 91 % 0.00 in /  0 mm
04:44 41.4 °F /  5.2 °C 39.0 °F /  3.9 °C 29.82 in /  1009.7 hPa ENE 12.2 mph /  19.6 km/h 25.3 mph /  40.7 km/h 91 % 0.00 in /  0 mm
04:49 41.4 °F /  5.2 °C 38.7 °F /  3.7 °C 29.82 in /  1009.7 hPa ENE 12.6 mph /  20.3 km/h 18.4 mph /  29.6 km/h 90 % 0.00 in /  0 mm
04:54 41.4 °F /  5.2 °C 38.7 °F /  3.7 °C 29.82 in /  1009.7 hPa ENE 11.5 mph /  18.5 km/h 16.0 mph /  25.7 km/h 90 % 0.00 in /  0 mm
04:59 41.5 °F /  5.3 °C 38.5 °F /  3.6 °C 29.82 in /  1009.7 hPa East 12.7 mph /  20.4 km/h 16.1 mph /  25.9 km/h 89 % 0.00 in /  0 mm
05:04 41.5 °F /  5.3 °C 38.5 °F /  3.6 °C 29.83 in /  1010 hPa ENE 10.8 mph /  17.4 km/h 14.0 mph /  22.5 km/h 89 % 0.00 in /  0 mm
05:09 41.4 °F /  5.2 °C 38.4 °F /  3.6 °C 29.83 in /  1010 hPa East 13.0 mph /  20.9 km/h 16.0 mph /  25.7 km/h 89 % 0.00 in /  0 mm
05:15 41.5 °F /  5.3 °C 38.5 °F /  3.6 °C 29.83 in /  1010 hPa East 12.5 mph /  20.1 km/h 15.0 mph /  24.1 km/h 89 % 0.00 in /  0 mm
05:20 41.4 °F /  5.2 °C 38.4 °F /  3.6 °C 29.82 in /  1009.7 hPa ENE 13.3 mph /  21.4 km/h 21.9 mph /  35.2 km/h 89 % 0.00 in /  0 mm
05:25 41.4 °F /  5.2 °C 38.4 °F /  3.6 °C 29.82 in /  1009.7 hPa ENE 12.9 mph /  20.8 km/h 18.4 mph /  29.6 km/h 89 % 0.00 in /  0 mm
05:30 41.4 °F /  5.2 °C 38.4 °F /  3.6 °C 29.82 in /  1009.7 hPa ENE 11.3 mph /  18.2 km/h 14.0 mph /  22.5 km/h 89 % 0.00 in /  0 mm
05:35 41.3 °F /  5.2 °C 38.3 °F /  3.5 °C 29.83 in /  1010 hPa ENE 11.4 mph /  18.3 km/h 17.3 mph /  27.8 km/h 89 % 0.00 in /  0 mm
05:40 41.3 °F /  5.2 °C 38.0 °F /  3.3 °C 29.82 in /  1009.7 hPa ENE 12.4 mph /  20 km/h 17.3 mph /  27.8 km/h 88 % 0.00 in /  0 mm
05:45 41.2 °F /  5.1 °C 37.9 °F /  3.3 °C 29.82 in /  1009.7 hPa East 16.3 mph /  26.2 km/h 32.2 mph /  51.8 km/h 88 % 0.00 in /  0 mm
05:50 41.2 °F /  5.1 °C 37.9 °F /  3.3 °C 29.82 in /  1009.7 hPa ENE 15.4 mph /  24.8 km/h 20.7 mph /  33.3 km/h 88 % 0.00 in /  0 mm
05:55 41.1 °F /  5.1 °C 37.8 °F /  3.2 °C 29.83 in /  1010 hPa East 13.4 mph /  21.6 km/h 19.6 mph /  31.5 km/h 88 % 0.00 in /  0 mm
06:00 41.1 °F /  5.1 °C 37.5 °F /  3.1 °C 29.84 in /  1010.4 hPa East 12.2 mph /  19.6 km/h 16.1 mph /  25.9 km/h 87 % 0.00 in /  0 mm
06:05 41.1 °F /  5.1 °C 37.5 °F /  3.1 °C 29.83 in /  1010 hPa East 12.0 mph /  19.3 km/h 14.0 mph /  22.5 km/h 87 % 0.00 in /  0 mm
06:10 41.1 °F /  5.1 °C 37.2 °F /  2.9 °C 29.82 in /  1009.7 hPa East 14.4 mph /  23.2 km/h 17.3 mph /  27.8 km/h 86 % 0.00 in /  0 mm
06:15 41.0 °F /  5 °C 37.1 °F /  2.8 °C 29.81 in /  1009.4 hPa ENE 13.7 mph /  22 km/h 17.3 mph /  27.8 km/h 86 % 0.00 in /  0 mm
06:20 40.9 °F /  4.9 °C 37.0 °F /  2.8 °C 29.80 in /  1009 hPa NE 14.4 mph /  23.2 km/h 21.9 mph /  35.2 km/h 86 % 0.00 in /  0 mm
06:25 40.9 °F /  4.9 °C 37.0 °F /  2.8 °C 29.81 in /  1009.4 hPa East 15.3 mph /  24.6 km/h 20.7 mph /  33.3 km/h 86 % 0.00 in /  0 mm
06:30 40.9 °F /  4.9 °C 36.7 °F /  2.6 °C 29.82 in /  1009.7 hPa East 13.8 mph /  22.2 km/h 24.2 mph /  38.9 km/h 85 % 0.00 in /  0 mm
06:35 40.9 °F /  4.9 °C 36.7 °F /  2.6 °C 29.83 in /  1010 hPa East 13.7 mph /  22 km/h 17.3 mph /  27.8 km/h 85 % 0.00 in /  0 mm
06:41 40.8 °F /  4.9 °C 36.6 °F /  2.6 °C 29.83 in /  1010 hPa ENE 14.6 mph /  23.5 km/h 18.4 mph /  29.6 km/h 85 % 0.00 in /  0 mm
06:46 40.9 °F /  4.9 °C 36.7 °F /  2.6 °C 29.83 in /  1010 hPa NE 15.4 mph /  24.8 km/h 19.0 mph /  30.6 km/h 85 % 0.00 in /  0 mm
06:51 40.8 °F /  4.9 °C 36.3 °F /  2.4 °C 29.83 in /  1010 hPa East 15.6 mph /  25.1 km/h 19.6 mph /  31.5 km/h 84 % 0.00 in /  0 mm
06:56 40.8 °F /  4.9 °C 36.3 °F /  2.4 °C 29.83 in /  1010 hPa ENE 14.6 mph /  23.5 km/h 20.7 mph /  33.3 km/h 84 % 0.00 in /  0 mm
07:01 40.7 °F /  4.8 °C 36.5 °F /  2.5 °C 29.82 in /  1009.7 hPa ENE 16.6 mph /  26.7 km/h 24.2 mph /  38.9 km/h 85 % 0.00 in /  0 mm
07:06 40.6 °F /  4.8 °C 36.4 °F /  2.4 °C 29.83 in /  1010 hPa NE 15.4 mph /  24.8 km/h 22.0 mph /  35.4 km/h 85 % 0.00 in /  0 mm
07:11 40.5 °F /  4.7 °C 36.3 °F /  2.4 °C 29.83 in /  1010 hPa East 15.2 mph /  24.5 km/h 23.0 mph /  37 km/h 85 % 0.00 in /  0 mm
07:16 40.6 °F /  4.8 °C 36.1 °F /  2.3 °C 29.83 in /  1010 hPa East 16.2 mph /  26.1 km/h 24.2 mph /  38.9 km/h 84 % 0.00 in /  0 mm
07:21 40.6 °F /  4.8 °C 36.1 °F /  2.3 °C 29.83 in /  1010 hPa ENE 15.2 mph /  24.5 km/h 20.7 mph /  33.3 km/h 84 % 0.00 in /  0 mm
07:26 40.7 °F /  4.8 °C 36.2 °F /  2.3 °C 29.84 in /  1010.4 hPa East 13.7 mph /  22 km/h 16.1 mph /  25.9 km/h 84 % 0.00 in /  0 mm
07:31 40.7 °F /  4.8 °C 36.2 °F /  2.3 °C 29.84 in /  1010.4 hPa ENE 13.8 mph /  22.2 km/h 18.0 mph /  29 km/h 84 % 0.00 in /  0 mm
07:36 40.6 °F /  4.8 °C 36.1 °F /  2.3 °C 29.84 in /  1010.4 hPa ENE 16.7 mph /  26.9 km/h 21.9 mph /  35.2 km/h 84 % 0.00 in /  0 mm
07:41 40.5 °F /  4.7 °C 36.3 °F /  2.4 °C 29.83 in /  1010 hPa East 15.4 mph /  24.8 km/h 19.6 mph /  31.5 km/h 85 % 0.00 in /  0 mm
07:46 40.4 °F /  4.7 °C 36.2 °F /  2.3 °C 29.83 in /  1010 hPa ENE 14.9 mph /  24 km/h 19.6 mph /  31.5 km/h 85 % 0.00 in /  0 mm
07:51 40.4 °F /  4.7 °C 35.9 °F /  2.2 °C 29.84 in /  1010.4 hPa ENE 16.6 mph /  26.7 km/h 23.0 mph /  37 km/h 84 % 0.00 in /  0 mm
07:56 40.4 °F /  4.7 °C 35.6 °F /  2 °C 29.83 in /  1010 hPa East 17.8 mph /  28.6 km/h 25.0 mph /  40.2 km/h 83 % 0.00 in /  0 mm
08:01 40.3 °F /  4.6 °C 35.2 °F /  1.8 °C 29.84 in /  1010.4 hPa East 19.2 mph /  30.9 km/h 29.9 mph /  48.1 km/h 82 % 0.00 in /  0 mm
08:07 40.4 °F /  4.7 °C 35.9 °F /  2.2 °C 29.85 in /  1010.7 hPa ENE 15.9 mph /  25.6 km/h 19.6 mph /  31.5 km/h 84 % 0.00 in /  0 mm
08:12 40.3 °F /  4.6 °C 35.5 °F /  1.9 °C 29.85 in /  1010.7 hPa East 15.2 mph /  24.5 km/h 20.7 mph /  33.3 km/h 83 % 0.00 in /  0 mm
08:17 40.3 °F /  4.6 °C 35.2 °F /  1.8 °C 29.85 in /  1010.7 hPa ENE 15.7 mph /  25.3 km/h 21.9 mph /  35.2 km/h 82 % 0.00 in /  0 mm
08:22 40.3 °F /  4.6 °C 35.5 °F /  1.9 °C 29.85 in /  1010.7 hPa ENE 17.4 mph /  28 km/h 23.0 mph /  37 km/h 83 % 0.00 in /  0 mm
08:27 40.4 °F /  4.7 °C 35.6 °F /  2 °C 29.85 in /  1010.7 hPa East 16.1 mph /  25.9 km/h 21.9 mph /  35.2 km/h 83 % 0.00 in /  0 mm
08:32 40.3 °F /  4.6 °C 35.8 °F /  2.1 °C 29.84 in /  1010.4 hPa ENE 18.1 mph /  29.1 km/h 24.2 mph /  38.9 km/h 84 % 0.00 in /  0 mm
08:37 40.2 °F /  4.6 °C 35.8 °F /  2.1 °C 29.85 in /  1010.7 hPa ENE 19.4 mph /  31.2 km/h 23.0 mph /  37 km/h 84 % 0.00 in /  0 mm
08:42 40.1 °F /  4.5 °C 35.4 °F /  1.9 °C 29.85 in /  1010.7 hPa NE 18.0 mph /  29 km/h 25.3 mph /  40.7 km/h 83 % 0.00 in /  0 mm
08:47 40.1 °F /  4.5 °C 35.4 °F /  1.9 °C 29.84 in /  1010.4 hPa ENE 13.5 mph /  21.7 km/h 19.6 mph /  31.5 km/h 83 % 0.00 in /  0 mm
08:52 40.1 °F /  4.5 °C 35.4 °F /  1.9 °C 29.84 in /  1010.4 hPa NE 16.3 mph /  26.2 km/h 19.6 mph /  31.5 km/h 83 % 0.00 in /  0 mm
08:57 40.1 °F /  4.5 °C 35.4 °F /  1.9 °C 29.84 in /  1010.4 hPa ENE 15.5 mph /  24.9 km/h 23.0 mph /  37 km/h 83 % 0.00 in /  0 mm
09:02 40.1 °F /  4.5 °C 35.7 °F /  2.1 °C 29.84 in /  1010.4 hPa ENE 15.8 mph /  25.4 km/h 23.0 mph /  37 km/h 84 % 0.00 in /  0 mm
09:07 40.1 °F /  4.5 °C 35.4 °F /  1.9 °C 29.84 in /  1010.4 hPa East 16.1 mph /  25.9 km/h 19.6 mph /  31.5 km/h 83 % 0.00 in /  0 mm
09:12 40.0 °F /  4.4 °C 34.9 °F /  1.6 °C 29.83 in /  1010 hPa ENE 15.4 mph /  24.8 km/h 24.2 mph /  38.9 km/h 82 % 0.00 in /  0 mm
09:17 40.0 °F /  4.4 °C 34.9 °F /  1.6 °C 29.83 in /  1010 hPa East 18.6 mph /  29.9 km/h 27.0 mph /  43.5 km/h 82 % 0.00 in /  0 mm
09:22 40.0 °F /  4.4 °C 34.9 °F /  1.6 °C 29.82 in /  1009.7 hPa NE 18.6 mph /  29.9 km/h 25.3 mph /  40.7 km/h 82 % 0.00 in /  0 mm
09:27 40.0 °F /  4.4 °C 34.9 °F /  1.6 °C 29.83 in /  1010 hPa ENE 15.9 mph /  25.6 km/h 20.7 mph /  33.3 km/h 82 % 0.00 in /  0 mm
09:33 40.0 °F /  4.4 °C 34.6 °F /  1.4 °C 29.84 in /  1010.4 hPa ENE 18.9 mph /  30.4 km/h 21.9 mph /  35.2 km/h 81 % 0.00 in /  0 mm
09:38 40.0 °F /  4.4 °C 34.9 °F /  1.6 °C 29.84 in /  1010.4 hPa East 16.0 mph /  25.7 km/h 18.4 mph /  29.6 km/h 82 % 0.00 in /  0 mm
09:43 40.1 °F /  4.5 °C 34.7 °F /  1.5 °C 29.84 in /  1010.4 hPa East 18.8 mph /  30.3 km/h 26.0 mph /  41.8 km/h 81 % 0.00 in /  0 mm
09:48 40.1 °F /  4.5 °C 34.7 °F /  1.5 °C 29.84 in /  1010.4 hPa East 19.4 mph /  31.2 km/h 23.0 mph /  37 km/h 81 % 0.00 in /  0 mm
09:53 40.0 °F /  4.4 °C 34.3 °F /  1.3 °C 29.83 in /  1010 hPa East 16.8 mph /  27 km/h 20.7 mph /  33.3 km/h 80 % 0.00 in /  0 mm
09:58 40.1 °F /  4.5 °C 34.7 °F /  1.5 °C 29.83 in /  1010 hPa ENE 18.7 mph /  30.1 km/h 26.5 mph /  42.6 km/h 81 % 0.00 in /  0 mm
10:03 40.1 °F /  4.5 °C 34.7 °F /  1.5 °C 29.83 in /  1010 hPa East 17.5 mph /  28.2 km/h 23.0 mph /  37 km/h 81 % 0.00 in /  0 mm
10:08 40.1 °F /  4.5 °C 34.7 °F /  1.5 °C 29.83 in /  1010 hPa East 16.5 mph /  26.6 km/h 25.3 mph /  40.7 km/h 81 % 0.00 in /  0 mm
10:13 40.0 °F /  4.4 °C 34.6 °F /  1.4 °C 29.84 in /  1010.4 hPa ENE 18.5 mph /  29.8 km/h 26.0 mph /  41.8 km/h 81 % 0.00 in /  0 mm
10:18 40.0 °F /  4.4 °C 34.6 °F /  1.4 °C 29.83 in /  1010 hPa East 15.4 mph /  24.8 km/h 24.2 mph /  38.9 km/h 81 % 0.00 in /  0 mm
10:23 40.1 °F /  4.5 °C 34.7 °F /  1.5 °C 29.83 in /  1010 hPa East 15.5 mph /  24.9 km/h 23.0 mph /  37 km/h 81 % 0.00 in /  0 mm
10:28 40.1 °F /  4.5 °C 34.4 °F /  1.3 °C 29.83 in /  1010 hPa ENE 18.0 mph /  29 km/h 29.9 mph /  48.1 km/h 80 % 0.00 in /  0 mm
10:33 40.0 °F /  4.4 °C 34.3 °F /  1.3 °C 29.83 in /  1010 hPa East 15.4 mph /  24.8 km/h 21.9 mph /  35.2 km/h 80 % 0.00 in /  0 mm
10:38 40.0 °F /  4.4 °C 34.6 °F /  1.4 °C 29.84 in /  1010.4 hPa ENE 17.3 mph /  27.8 km/h 23.0 mph /  37 km/h 81 % 0.00 in /  0 mm
10:43 40.0 °F /  4.4 °C 34.6 °F /  1.4 °C 29.84 in /  1010.4 hPa East 15.4 mph /  24.8 km/h 23.0 mph /  37 km/h 81 % 0.00 in /  0 mm
10:48 40.0 °F /  4.4 °C 34.9 °F /  1.6 °C 29.83 in /  1010 hPa East 15.9 mph /  25.6 km/h 19.6 mph /  31.5 km/h 82 % 0.00 in /  0 mm
10:53 39.9 °F /  4.4 °C 34.5 °F /  1.4 °C 29.84 in /  1010.4 hPa East 17.1 mph /  27.5 km/h 26.5 mph /  42.6 km/h 81 % 0.00 in /  0 mm
10:58 39.9 °F /  4.4 °C 34.5 °F /  1.4 °C 29.83 in /  1010 hPa East 18.6 mph /  29.9 km/h 24.2 mph /  38.9 km/h 81 % 0.00 in /  0 mm
11:04 39.9 °F /  4.4 °C 34.9 °F /  1.6 °C 29.83 in /  1010 hPa East 15.0 mph /  24.1 km/h 19.6 mph /  31.5 km/h 82 % 0.00 in /  0 mm
11:09 39.9 °F /  4.4 °C 34.9 °F /  1.6 °C 29.83 in /  1010 hPa East 15.1 mph /  24.3 km/h 21.9 mph /  35.2 km/h 82 % 0.00 in /  0 mm
11:14 39.8 °F /  4.3 °C 34.8 °F /  1.6 °C 29.82 in /  1009.7 hPa NE 18.5 mph /  29.8 km/h 19.6 mph /  31.5 km/h 82 % 0.00 in /  0 mm
11:19 39.8 °F /  4.3 °C 34.8 °F /  1.6 °C 29.82 in /  1009.7 hPa ENE 16.0 mph /  25.7 km/h 24.0 mph /  38.6 km/h 82 % 0.00 in /  0 mm
11:24 39.9 °F /  4.4 °C 35.2 °F /  1.8 °C 29.81 in /  1009.4 hPa ENE 18.0 mph /  29 km/h 24.0 mph /  38.6 km/h 83 % 0.00 in /  0 mm
11:29 39.8 °F /  4.3 °C 35.1 °F /  1.7 °C 29.81 in /  1009.4 hPa East 16.0 mph /  25.7 km/h 26.5 mph /  42.6 km/h 83 % 0.00 in /  0 mm
11:34 39.8 °F /  4.3 °C 35.1 °F /  1.7 °C 29.80 in /  1009 hPa ENE 14.0 mph /  22.5 km/h 20.0 mph /  32.2 km/h 83 % 0.00 in /  0 mm
11:39 39.8 °F /  4.3 °C 35.1 °F /  1.7 °C 29.80 in /  1009 hPa ENE 15.0 mph /  24.1 km/h 25.0 mph /  40.2 km/h 83 % 0.00 in /  0 mm
11:44 39.8 °F /  4.3 °C 35.1 °F /  1.7 °C 29.79 in /  1008.7 hPa ENE 14.1 mph /  22.7 km/h 18.4 mph /  29.6 km/h 83 % 0.00 in /  0 mm
11:49 39.8 °F /  4.3 °C 35.1 °F /  1.7 °C 29.78 in /  1008.4 hPa ENE 16.0 mph /  25.7 km/h 25.0 mph /  40.2 km/h 83 % 0.00 in /  0 mm
11:54 39.8 °F /  4.3 °C 35.1 °F /  1.7 °C 29.79 in /  1008.7 hPa ENE 16.0 mph /  25.7 km/h 26.0 mph /  41.8 km/h 83 % 0.00 in /  0 mm
11:59 39.8 °F /  4.3 °C 35.1 °F /  1.7 °C 29.79 in /  1008.7 hPa East 15.7 mph /  25.3 km/h 25.3 mph /  40.7 km/h 83 % 0.00 in /  0 mm
12:04 39.8 °F /  4.3 °C 35.1 °F /  1.7 °C 29.78 in /  1008.4 hPa ENE 16.4 mph /  26.4 km/h 25.3 mph /  40.7 km/h 83 % 0.00 in /  0 mm
12:09 39.8 °F /  4.3 °C 35.1 °F /  1.7 °C 29.78 in /  1008.4 hPa ENE 17.5 mph /  28.2 km/h 24.2 mph /  38.9 km/h 83 % 0.00 in /  0 mm
12:14 39.8 °F /  4.3 °C 35.1 °F /  1.7 °C 29.77 in /  1008 hPa ENE 16.4 mph /  26.4 km/h 24.2 mph /  38.9 km/h 83 % 0.00 in /  0 mm
12:19 39.8 °F /  4.3 °C 35.1 °F /  1.7 °C 29.78 in /  1008.4 hPa East 15.5 mph /  24.9 km/h 20.7 mph /  33.3 km/h 83 % 0.00 in /  0 mm
12:24 39.8 °F /  4.3 °C 35.1 °F /  1.7 °C 29.77 in /  1008 hPa East 17.6 mph /  28.3 km/h 25.3 mph /  40.7 km/h 83 % 0.00 in /  0 mm
12:29 40.0 °F /  4.4 °C 35.6 °F /  2 °C 29.77 in /  1008 hPa East 16.7 mph /  26.9 km/h 23.0 mph /  37 km/h 84 % 0.00 in /  0 mm
12:34 40.0 °F /  4.4 °C 35.6 °F /  2 °C 29.77 in /  1008 hPa East 16.0 mph /  25.7 km/h 22.0 mph /  35.4 km/h 84 % 0.00 in /  0 mm
12:39 40.0 °F /  4.4 °C 35.3 °F /  1.8 °C 29.76 in /  1007.7 hPa East 15.4 mph /  24.8 km/h 21.9 mph /  35.2 km/h 83 % 0.00 in /  0 mm
12:44 40.0 °F /  4.4 °C 35.3 °F /  1.8 °C 29.76 in /  1007.7 hPa East 15.5 mph /  24.9 km/h 21.9 mph /  35.2 km/h 83 % 0.00 in /  0 mm
12:49 40.0 °F /  4.4 °C 35.3 °F /  1.8 °C 29.76 in /  1007.7 hPa ENE 15.6 mph /  25.1 km/h 26.5 mph /  42.6 km/h 83 % 0.00 in /  0 mm
12:54 40.0 °F /  4.4 °C 35.3 °F /  1.8 °C 29.75 in /  1007.3 hPa ENE 16.3 mph /  26.2 km/h 19.6 mph /  31.5 km/h 83 % 0.00 in /  0 mm
12:59 40.0 °F /  4.4 °C 35.6 °F /  2 °C 29.75 in /  1007.3 hPa East 17.1 mph /  27.5 km/h 24.2 mph /  38.9 km/h 84 % 0.00 in /  0 mm
13:05 39.9 °F /  4.4 °C 35.5 °F /  1.9 °C 29.75 in /  1007.3 hPa East 17.5 mph /  28.2 km/h 26.5 mph /  42.6 km/h 84 % 0.00 in /  0 mm
13:10 39.9 °F /  4.4 °C 35.8 °F /  2.1 °C 29.75 in /  1007.3 hPa ESE 15.1 mph /  24.3 km/h 18.4 mph /  29.6 km/h 85 % 0.00 in /  0 mm
13:15 39.9 °F /  4.4 °C 35.5 °F /  1.9 °C 29.74 in /  1007 hPa ENE 18.7 mph /  30.1 km/h 26.5 mph /  42.6 km/h 84 % 0.00 in /  0 mm
13:20 39.9 °F /  4.4 °C 35.5 °F /  1.9 °C 29.73 in /  1006.7 hPa ENE 19.3 mph /  31.1 km/h 24.2 mph /  38.9 km/h 84 % 0.00 in /  0 mm
13:25 39.8 °F /  4.3 °C 35.4 °F /  1.9 °C 29.72 in /  1006.3 hPa East 17.1 mph /  27.5 km/h 25.3 mph /  40.7 km/h 84 % 0.00 in /  0 mm
13:30 39.8 °F /  4.3 °C 35.4 °F /  1.9 °C 29.73 in /  1006.7 hPa ENE 17.2 mph /  27.7 km/h 20.7 mph /  33.3 km/h 84 % 0.00 in /  0 mm
13:31 39.9 °F /  4.4 °C 35.2 °F /  1.8 °C 29.73 in /  1006.7 hPa East 15.0 mph /  24.1 km/h 24.2 mph /  38.9 km/h 83 % 0.00 in /  0 mm
13:36 39.9 °F /  4.4 °C 35.2 °F /  1.8 °C 29.72 in /  1006.3 hPa ENE 14.6 mph /  23.5 km/h 16.1 mph /  25.9 km/h 83 % 0.00 in /  0 mm
13:41 39.9 °F /  4.4 °C 35.5 °F /  1.9 °C 29.72 in /  1006.3 hPa ENE 13.3 mph /  21.4 km/h 19.6 mph /  31.5 km/h 84 % 0.00 in /  0 mm
13:46 39.9 °F /  4.4 °C 35.2 °F /  1.8 °C 29.72 in /  1006.3 hPa East 18.1 mph /  29.1 km/h 24.2 mph /  38.9 km/h 83 % 0.00 in /  0 mm
13:51 40.0 °F /  4.4 °C 34.9 °F /  1.6 °C 29.72 in /  1006.3 hPa ENE 16.1 mph /  25.9 km/h 25.3 mph /  40.7 km/h 82 % 0.00 in /  0 mm
13:56 39.9 °F /  4.4 °C 34.9 °F /  1.6 °C 29.72 in /  1006.3 hPa ENE 15.1 mph /  24.3 km/h 23.0 mph /  37 km/h 82 % 0.00 in /  0 mm
14:01 39.9 °F /  4.4 °C 35.2 °F /  1.8 °C 29.72 in /  1006.3 hPa NE 17.4 mph /  28 km/h 23.0 mph /  37 km/h 83 % 0.00 in /  0 mm
14:06 39.9 °F /  4.4 °C 34.9 °F /  1.6 °C 29.72 in /  1006.3 hPa NE 15.8 mph /  25.4 km/h 23.0 mph /  37 km/h 82 % 0.00 in /  0 mm
14:11 39.8 °F /  4.3 °C 34.4 °F /  1.3 °C 29.71 in /  1006 hPa East 18.2 mph /  29.3 km/h 24.2 mph /  38.9 km/h 81 % 0.00 in /  0 mm
14:16 39.8 °F /  4.3 °C 34.4 °F /  1.3 °C 29.71 in /  1006 hPa East 16.9 mph /  27.2 km/h 24.2 mph /  38.9 km/h 81 % 0.00 in /  0 mm
14:21 39.8 °F /  4.3 °C 34.8 °F /  1.6 °C 29.70 in /  1005.6 hPa East 17.3 mph /  27.8 km/h 25.3 mph /  40.7 km/h 82 % 0.00 in /  0 mm
14:26 39.7 °F /  4.3 °C 34.7 °F /  1.5 °C 29.70 in /  1005.6 hPa ENE 21.4 mph /  34.4 km/h 29.9 mph /  48.1 km/h 82 % 0.00 in /  0 mm
14:31 39.7 °F /  4.3 °C 34.7 °F /  1.5 °C 29.69 in /  1005.3 hPa NE 19.8 mph /  31.9 km/h 24.2 mph /  38.9 km/h 82 % 0.00 in /  0 mm
14:36 39.6 °F /  4.2 °C 34.9 °F /  1.6 °C 29.70 in /  1005.6 hPa ENE 21.4 mph /  34.4 km/h 24.2 mph /  38.9 km/h 83 % 0.00 in /  0 mm
14:41 39.4 °F /  4.1 °C 34.7 °F /  1.5 °C 29.69 in /  1005.3 hPa ENE 21.4 mph /  34.4 km/h 28.8 mph /  46.3 km/h 83 % 0.00 in /  0 mm
14:46 39.3 °F /  4.1 °C 34.9 °F /  1.6 °C 29.68 in /  1005 hPa East 19.6 mph /  31.5 km/h 28.8 mph /  46.3 km/h 84 % 0.00 in /  0 mm
14:52 39.2 °F /  4 °C 34.5 °F /  1.4 °C 29.68 in /  1005 hPa NE 18.3 mph /  29.5 km/h 26.5 mph /  42.6 km/h 83 % 0.00 in /  0 mm
14:57 39.3 °F /  4.1 °C 35.2 °F /  1.8 °C 29.68 in /  1005 hPa NE 16.9 mph /  27.2 km/h 23.0 mph /  37 km/h 85 % 0.00 in /  0 mm
15:02 39.3 °F /  4.1 °C 34.6 °F /  1.4 °C 29.67 in /  1004.6 hPa ENE 20.1 mph /  32.3 km/h 38.0 mph /  61.2 km/h 83 % 0.00 in /  0 mm
15:07 39.3 °F /  4.1 °C 34.9 °F /  1.6 °C 29.68 in /  1005 hPa ENE 18.1 mph /  29.1 km/h 26.5 mph /  42.6 km/h 84 % 0.00 in /  0 mm
15:12 39.3 °F /  4.1 °C 35.2 °F /  1.8 °C 29.68 in /  1005 hPa ENE 18.5 mph /  29.8 km/h 24.2 mph /  38.9 km/h 85 % 0.00 in /  0 mm
15:17 39.2 °F /  4 °C 35.1 °F /  1.7 °C 29.67 in /  1004.6 hPa ENE 17.8 mph /  28.6 km/h 25.3 mph /  40.7 km/h 85 % 0.00 in /  0 mm
15:22 39.2 °F /  4 °C 35.1 °F /  1.7 °C 29.66 in /  1004.3 hPa East 21.4 mph /  34.4 km/h 27.6 mph /  44.4 km/h 85 % 0.00 in /  0 mm
15:27 39.2 °F /  4 °C 35.1 °F /  1.7 °C 29.67 in /  1004.6 hPa East 20.6 mph /  33.2 km/h 28.8 mph /  46.3 km/h 85 % 0.00 in /  0 mm
15:32 39.2 °F /  4 °C 34.8 °F /  1.6 °C 29.67 in /  1004.6 hPa East 23.3 mph /  37.5 km/h 31.1 mph /  50 km/h 84 % 0.00 in /  0 mm
15:37 39.3 °F /  4.1 °C 34.9 °F /  1.6 °C 29.67 in /  1004.6 hPa ENE 20.5 mph /  33 km/h 31.1 mph /  50 km/h 84 % 0.00 in /  0 mm
15:42 39.3 °F /  4.1 °C 35.2 °F /  1.8 °C 29.66 in /  1004.3 hPa ENE 17.0 mph /  27.4 km/h 25.3 mph /  40.7 km/h 85 % 0.00 in /  0 mm
15:47 39.4 °F /  4.1 °C 35.3 °F /  1.8 °C 29.67 in /  1004.6 hPa ENE 16.6 mph /  26.7 km/h 23.0 mph /  37 km/h 85 % 0.00 in /  0 mm
15:52 39.4 °F /  4.1 °C 35.0 °F /  1.7 °C 29.67 in /  1004.6 hPa ENE 17.9 mph /  28.8 km/h 25.3 mph /  40.7 km/h 84 % 0.00 in /  0 mm
15:57 39.4 °F /  4.1 °C 35.0 °F /  1.7 °C 29.67 in /  1004.6 hPa ENE 20.2 mph /  32.5 km/h 25.0 mph /  40.2 km/h 84 % 0.00 in /  0 mm
16:02 39.5 °F /  4.2 °C 35.4 °F /  1.9 °C 29.66 in /  1004.3 hPa East 20.8 mph /  33.5 km/h 27.0 mph /  43.5 km/h 85 % 0.00 in /  0 mm
16:07 39.3 °F /  4.1 °C 34.9 °F /  1.6 °C 29.65 in /  1003.9 hPa ENE 22.5 mph /  36.2 km/h 29.9 mph /  48.1 km/h 84 % 0.00 in /  0 mm
16:12 39.3 °F /  4.1 °C 35.2 °F /  1.8 °C 29.66 in /  1004.3 hPa ENE 20.3 mph /  32.7 km/h 29.0 mph /  46.7 km/h 85 % 0.00 in /  0 mm
16:17 39.3 °F /  4.1 °C 35.2 °F /  1.8 °C 29.65 in /  1003.9 hPa East 20.6 mph /  33.2 km/h 30.0 mph /  48.3 km/h 85 % 0.00 in /  0 mm
16:23 39.2 °F /  4 °C 35.1 °F /  1.7 °C 29.64 in /  1003.6 hPa ENE 23.2 mph /  37.3 km/h 26.5 mph /  42.6 km/h 85 % 0.00 in /  0 mm
16:28 39.2 °F /  4 °C 35.4 °F /  1.9 °C 29.64 in /  1003.6 hPa ENE 23.0 mph /  37 km/h 28.0 mph /  45.1 km/h 86 % 0.00 in /  0 mm
16:33 39.3 °F /  4.1 °C 35.2 °F /  1.8 °C 29.64 in /  1003.6 hPa NE 20.4 mph /  32.8 km/h 33.4 mph /  53.8 km/h 85 % 0.00 in /  0 mm
16:38 39.3 °F /  4.1 °C 35.2 °F /  1.8 °C 29.63 in /  1003.3 hPa ENE 20.9 mph /  33.6 km/h 25.3 mph /  40.7 km/h 85 % 0.00 in /  0 mm
16:43 39.3 °F /  4.1 °C 35.2 °F /  1.8 °C 29.63 in /  1003.3 hPa East 19.9 mph /  32 km/h 31.1 mph /  50 km/h 85 % 0.00 in /  0 mm
16:48 39.4 °F /  4.1 °C 35.3 °F /  1.8 °C 29.64 in /  1003.6 hPa ENE 19.0 mph /  30.6 km/h 29.9 mph /  48.1 km/h 85 % 0.00 in /  0 mm
16:53 39.4 °F /  4.1 °C 35.3 °F /  1.8 °C 29.64 in /  1003.6 hPa ENE 17.1 mph /  27.5 km/h 25.3 mph /  40.7 km/h 85 % 0.00 in /  0 mm
16:58 39.5 °F /  4.2 °C 35.4 °F /  1.9 °C 29.64 in /  1003.6 hPa ENE 20.7 mph /  33.3 km/h 32.2 mph /  51.8 km/h 85 % 0.00 in /  0 mm
17:03 39.4 °F /  4.1 °C 35.6 °F /  2 °C 29.64 in /  1003.6 hPa ENE 15.0 mph /  24.1 km/h 27.6 mph /  44.4 km/h 86 % 0.00 in /  0 mm
17:08 39.3 °F /  4.1 °C 35.5 °F /  1.9 °C 29.64 in /  1003.6 hPa East 24.4 mph /  39.3 km/h 31.1 mph /  50 km/h 86 % 0.00 in /  0 mm
17:13 39.1 °F /  3.9 °C 35.8 °F /  2.1 °C 29.64 in /  1003.6 hPa ENE 20.1 mph /  32.3 km/h 29.0 mph /  46.7 km/h 88 % 0.00 in /  0 mm
17:18 39.0 °F /  3.9 °C 36.0 °F /  2.2 °C 29.64 in /  1003.6 hPa East 18.9 mph /  30.4 km/h 31.1 mph /  50 km/h 89 % 0.00 in /  0 mm
17:23 38.9 °F /  3.8 °C 35.9 °F /  2.2 °C 29.64 in /  1003.6 hPa NE 16.7 mph /  26.9 km/h 24.2 mph /  38.9 km/h 89 % 0.00 in /  0 mm
17:28 38.9 °F /  3.8 °C 35.9 °F /  2.2 °C 29.64 in /  1003.6 hPa NNE 20.1 mph /  32.3 km/h 26.0 mph /  41.8 km/h 89 % 0.01 in /  0.25 mm
17:33 38.8 °F /  3.8 °C 35.8 °F /  2.1 °C 29.64 in /  1003.6 hPa ENE 18.4 mph /  29.6 km/h 26.0 mph /  41.8 km/h 89 % 0.01 in /  0.25 mm
17:38 38.8 °F /  3.8 °C 35.8 °F /  2.1 °C 29.64 in /  1003.6 hPa NE 18.4 mph /  29.6 km/h 22.0 mph /  35.4 km/h 89 % 0.01 in /  0.25 mm
17:43 38.8 °F /  3.8 °C 35.8 °F /  2.1 °C 29.64 in /  1003.6 hPa NE 15.9 mph /  25.6 km/h 24.2 mph /  38.9 km/h 89 % 0.01 in /  0.25 mm
17:48 38.8 °F /  3.8 °C 35.8 °F /  2.1 °C 29.63 in /  1003.3 hPa ENE 17.9 mph /  28.8 km/h 26.0 mph /  41.8 km/h 89 % 0.02 in /  0.51 mm
17:53 38.7 °F /  3.7 °C 36.0 °F /  2.2 °C 29.63 in /  1003.3 hPa ENE 15.4 mph /  24.8 km/h 21.0 mph /  33.8 km/h 90 % 0.03 in /  0.76 mm
17:59 38.7 °F /  3.7 °C 36.0 °F /  2.2 °C 29.64 in /  1003.6 hPa ENE 18.4 mph /  29.6 km/h 24.2 mph /  38.9 km/h 90 % 0.03 in /  0.76 mm
18:04 38.6 °F /  3.7 °C 36.2 °F /  2.3 °C 29.64 in /  1003.6 hPa ENE 15.2 mph /  24.5 km/h 18.0 mph /  29 km/h 91 % 0.04 in /  1.02 mm
18:09 38.5 °F /  3.6 °C 36.1 °F /  2.3 °C 29.64 in /  1003.6 hPa NE 15.8 mph /  25.4 km/h 23.0 mph /  37 km/h 91 % 0.06 in /  1.52 mm
18:14 38.4 °F /  3.6 °C 36.3 °F /  2.4 °C 29.64 in /  1003.6 hPa NE 17.3 mph /  27.8 km/h 25.3 mph /  40.7 km/h 92 % 0.07 in /  1.78 mm
18:19 38.4 °F /  3.6 °C 36.2 °F /  2.3 °C 29.65 in /  1003.9 hPa ENE 15.0 mph /  24.1 km/h 25.0 mph /  40.2 km/h 92 % 0.00 in /  0 mm
18:24 38.3 °F /  3.5 °C 36.5 °F /  2.5 °C 29.65 in /  1003.9 hPa ENE 18.0 mph /  29 km/h 26.0 mph /  41.8 km/h 93 % 0.00 in /  0 mm
18:29 38.2 °F /  3.4 °C 36.4 °F /  2.4 °C 29.66 in /  1004.3 hPa ENE 14.0 mph /  22.5 km/h 25.0 mph /  40.2 km/h 93 % 0.00 in /  0 mm
18:34 38.2 °F /  3.4 °C 36.4 °F /  2.4 °C 29.66 in /  1004.3 hPa ENE 14.0 mph /  22.5 km/h 25.0 mph /  40.2 km/h 93 % 0.00 in /  0 mm
18:39 38.1 °F /  3.4 °C 36.3 °F /  2.4 °C 29.65 in /  1003.9 hPa NNE 15.5 mph /  24.9 km/h 25.3 mph /  40.7 km/h 93 % 0.12 in /  3.05 mm
18:44 38.1 °F /  3.4 °C 36.3 °F /  2.4 °C 29.65 in /  1003.9 hPa ENE 16.0 mph /  25.7 km/h 23.0 mph /  37 km/h 93 % 0.00 in /  0 mm
18:49 38.0 °F /  3.3 °C 36.4 °F /  2.4 °C 29.66 in /  1004.3 hPa ENE 13.4 mph /  21.6 km/h 25.3 mph /  40.7 km/h 94 % 0.13 in /  3.3 mm
18:54 38.0 °F /  3.3 °C 36.4 °F /  2.4 °C 29.65 in /  1003.9 hPa ENE 15.0 mph /  24.1 km/h 26.0 mph /  41.8 km/h 94 % 0.00 in /  0 mm
18:59 37.9 °F /  3.3 °C 36.3 °F /  2.4 °C 29.64 in /  1003.6 hPa ENE 15.2 mph /  24.5 km/h 18.4 mph /  29.6 km/h 94 % 0.14 in /  3.56 mm
19:04 37.9 °F /  3.3 °C 36.3 °F /  2.4 °C 29.63 in /  1003.3 hPa ENE 14.0 mph /  22.5 km/h 24.0 mph /  38.6 km/h 94 % 0.01 in /  0.25 mm
19:09 37.9 °F /  3.3 °C 36.3 °F /  2.4 °C 29.63 in /  1003.3 hPa ENE 15.0 mph /  24.1 km/h 21.0 mph /  33.8 km/h 94 % 0.00 in /  0 mm
19:14 37.9 °F /  3.3 °C 36.3 °F /  2.4 °C 29.63 in /  1003.3 hPa ENE 16.0 mph /  25.7 km/h 23.0 mph /  37 km/h 94 % 0.00 in /  0 mm
19:19 37.9 °F /  3.3 °C 36.6 °F /  2.6 °C 29.63 in /  1003.3 hPa ENE 14.0 mph /  22.5 km/h 21.0 mph /  33.8 km/h 95 % 0.00 in /  0 mm
19:24 37.8 °F /  3.2 °C 36.5 °F /  2.5 °C 29.64 in /  1003.6 hPa ENE 16.0 mph /  25.7 km/h 22.0 mph /  35.4 km/h 95 % 0.01 in /  0.25 mm
19:29 37.8 °F /  3.2 °C 36.5 °F /  2.5 °C 29.64 in /  1003.6 hPa ENE 14.0 mph /  22.5 km/h 22.0 mph /  35.4 km/h 95 % 0.01 in /  0.25 mm
19:34 37.8 °F /  3.2 °C 36.5 °F /  2.5 °C 29.64 in /  1003.6 hPa ENE 14.0 mph /  22.5 km/h 21.0 mph /  33.8 km/h 95 % 0.01 in /  0.25 mm
19:39 37.7 °F /  3.2 °C 36.4 °F /  2.4 °C 29.64 in /  1003.6 hPa NE 14.0 mph /  22.5 km/h 21.0 mph /  33.8 km/h 95 % 0.01 in /  0.25 mm
19:44 37.7 °F /  3.2 °C 36.4 °F /  2.4 °C 29.64 in /  1003.6 hPa NE 13.7 mph /  22 km/h 18.4 mph /  29.6 km/h 95 % 0.13 in /  3.3 mm
19:49 37.7 °F /  3.2 °C 36.4 °F /  2.4 °C 29.63 in /  1003.3 hPa ENE 14.0 mph /  22.5 km/h 25.0 mph /  40.2 km/h 95 % 0.00 in /  0 mm
19:54 37.6 °F /  3.1 °C 36.3 °F /  2.4 °C 29.63 in /  1003.3 hPa ENE 10.0 mph /  16.1 km/h 23.0 mph /  37 km/h 95 % 0.00 in /  0 mm
19:59 37.6 °F /  3.1 °C 36.3 °F /  2.4 °C 29.63 in /  1003.3 hPa NNE 11.9 mph /  19.2 km/h 16.1 mph /  25.9 km/h 95 % 0.13 in /  3.3 mm
20:04 37.5 °F /  3.1 °C 36.2 °F /  2.3 °C 29.62 in /  1002.9 hPa NE 11.0 mph /  17.7 km/h 19.6 mph /  31.5 km/h 95 % 0.13 in /  3.3 mm
20:09 37.3 °F /  2.9 °C 36.0 °F /  2.2 °C 29.61 in /  1002.6 hPa ENE 16.4 mph /  26.4 km/h 23.0 mph /  37 km/h 95 % 0.12 in /  3.05 mm
20:14 37.3 °F /  2.9 °C 36.0 °F /  2.2 °C 29.61 in /  1002.6 hPa East 15.8 mph /  25.4 km/h 24.2 mph /  38.9 km/h 95 % 0.13 in /  3.3 mm
20:19 37.2 °F /  2.9 °C 35.9 °F /  2.2 °C 29.61 in /  1002.6 hPa ENE 12.4 mph /  20 km/h 19.0 mph /  30.6 km/h 95 % 0.13 in /  3.3 mm
20:24 37.1 °F /  2.8 °C 35.8 °F /  2.1 °C 29.60 in /  1002.3 hPa ENE 11.3 mph /  18.2 km/h 19.6 mph /  31.5 km/h 95 % 0.13 in /  3.3 mm
20:29 37.1 °F /  2.8 °C 35.8 °F /  2.1 °C 29.60 in /  1002.3 hPa ENE 12.4 mph /  20 km/h 21.0 mph /  33.8 km/h 95 % 0.12 in /  3.05 mm
20:34 37.0 °F /  2.8 °C 35.7 °F /  2.1 °C 29.60 in /  1002.3 hPa East 14.1 mph /  22.7 km/h 19.6 mph /  31.5 km/h 95 % 0.11 in /  2.79 mm
20:39 37.0 °F /  2.8 °C 35.7 °F /  2.1 °C 29.60 in /  1002.3 hPa NNE 13.3 mph /  21.4 km/h 23.0 mph /  37 km/h 95 % 0.11 in /  2.79 mm
20:44 37.0 °F /  2.8 °C 35.7 °F /  2.1 °C 29.60 in /  1002.3 hPa NE 13.5 mph /  21.7 km/h 20.7 mph /  33.3 km/h 95 % 0.11 in /  2.79 mm
20:50 37.0 °F /  2.8 °C 35.7 °F /  2.1 °C 29.59 in /  1001.9 hPa NE 11.3 mph /  18.2 km/h 21.9 mph /  35.2 km/h 95 % 0.10 in /  2.54 mm
20:55 36.9 °F /  2.7 °C 35.6 °F /  2 °C 29.59 in /  1001.9 hPa East 15.4 mph /  24.8 km/h 24.2 mph /  38.9 km/h 95 % 0.10 in /  2.54 mm
21:00 37.0 °F /  2.8 °C 35.7 °F /  2.1 °C 29.58 in /  1001.6 hPa ENE 16.9 mph /  27.2 km/h 26.5 mph /  42.6 km/h 95 % 0.08 in /  2.03 mm
21:05 37.0 °F /  2.8 °C 35.7 °F /  2.1 °C 29.58 in /  1001.6 hPa NE 16.2 mph /  26.1 km/h 25.3 mph /  40.7 km/h 95 % 0.07 in /  1.78 mm
21:10 37.0 °F /  2.8 °C 35.7 °F /  2.1 °C 29.58 in /  1001.6 hPa NE 18.1 mph /  29.1 km/h 27.0 mph /  43.5 km/h 95 % 0.07 in /  1.78 mm
21:15 37.0 °F /  2.8 °C 35.7 °F /  2.1 °C 29.58 in /  1001.6 hPa ENE 14.7 mph /  23.7 km/h 25.3 mph /  40.7 km/h 95 % 0.06 in /  1.52 mm
21:20 37.0 °F /  2.8 °C 35.7 °F /  2.1 °C 29.57 in /  1001.2 hPa ENE 14.7 mph /  23.7 km/h 25.3 mph /  40.7 km/h 95 % 0.05 in /  1.27 mm
21:25 37.0 °F /  2.8 °C 35.7 °F /  2.1 °C 29.57 in /  1001.2 hPa East 17.4 mph /  28 km/h 27.6 mph /  44.4 km/h 95 % 0.04 in /  1.02 mm
21:30 37.0 °F /  2.8 °C 35.7 °F /  2.1 °C 29.56 in /  1000.9 hPa ENE 18.4 mph /  29.6 km/h 24.2 mph /  38.9 km/h 95 % 0.05 in /  1.27 mm
21:35 37.0 °F /  2.8 °C 35.7 °F /  2.1 °C 29.56 in /  1000.9 hPa NNE 16.8 mph /  27 km/h 25.0 mph /  40.2 km/h 95 % 0.05 in /  1.27 mm
21:40 37.1 °F /  2.8 °C 35.8 °F /  2.1 °C 29.56 in /  1000.9 hPa ENE 18.3 mph /  29.5 km/h 27.6 mph /  44.4 km/h 95 % 0.05 in /  1.27 mm
21:45 37.1 °F /  2.8 °C 35.8 °F /  2.1 °C 29.55 in /  1000.6 hPa NE 17.8 mph /  28.6 km/h 26.5 mph /  42.6 km/h 95 % 0.05 in /  1.27 mm
21:50 37.1 °F /  2.8 °C 35.8 °F /  2.1 °C 29.54 in /  1000.2 hPa ENE 17.3 mph /  27.8 km/h 24.2 mph /  38.9 km/h 95 % 0.06 in /  1.52 mm
21:55 37.1 °F /  2.8 °C 36.1 °F /  2.3 °C 29.54 in /  1000.2 hPa NE 13.6 mph /  21.9 km/h 24.0 mph /  38.6 km/h 96 % 0.05 in /  1.27 mm
22:00 37.1 °F /  2.8 °C 36.1 °F /  2.3 °C 29.54 in /  1000.2 hPa ENE 17.2 mph /  27.7 km/h 27.6 mph /  44.4 km/h 96 % 0.06 in /  1.52 mm
22:06 37.1 °F /  2.8 °C 36.1 °F /  2.3 °C 29.54 in /  1000.2 hPa ENE 13.6 mph /  21.9 km/h 23.0 mph /  37 km/h 96 % 0.07 in /  1.78 mm
22:11 37.3 °F /  2.9 °C 36.3 °F /  2.4 °C 29.53 in /  999.9 hPa NE 14.4 mph /  23.2 km/h 23.0 mph /  37 km/h 96 % 0.06 in /  1.52 mm
22:16 37.2 °F /  2.9 °C 36.2 °F /  2.3 °C 29.52 in /  999.5 hPa ENE 18.1 mph /  29.1 km/h 26.5 mph /  42.6 km/h 96 % 0.07 in /  1.78 mm
22:21 37.3 °F /  2.9 °C 36.3 °F /  2.4 °C 29.52 in /  999.5 hPa ENE 16.9 mph /  27.2 km/h 26.5 mph /  42.6 km/h 96 % 0.07 in /  1.78 mm
22:26 37.2 °F /  2.9 °C 36.2 °F /  2.3 °C 29.51 in /  999.2 hPa ENE 15.8 mph /  25.4 km/h 26.5 mph /  42.6 km/h 96 % 0.07 in /  1.78 mm
22:31 37.2 °F /  2.9 °C 36.2 °F /  2.3 °C 29.51 in /  999.2 hPa NE 15.8 mph /  25.4 km/h 22.0 mph /  35.4 km/h 96 % 0.08 in /  2.03 mm
22:36 37.2 °F /  2.9 °C 36.2 °F /  2.3 °C 29.51 in /  999.2 hPa NNE 13.2 mph /  21.2 km/h 26.5 mph /  42.6 km/h 96 % 0.07 in /  1.78 mm
22:41 37.2 °F /  2.9 °C 36.2 °F /  2.3 °C 29.51 in /  999.2 hPa East 15.8 mph /  25.4 km/h 23.0 mph /  37 km/h 96 % 0.08 in /  2.03 mm
22:46 37.3 °F /  2.9 °C 36.3 °F /  2.4 °C 29.50 in /  998.9 hPa ENE 17.0 mph /  27.4 km/h 24.0 mph /  38.6 km/h 96 % 0.08 in /  2.03 mm
22:51 37.3 °F /  2.9 °C 36.3 °F /  2.4 °C 29.50 in /  998.9 hPa NE 12.3 mph /  19.8 km/h 22.0 mph /  35.4 km/h 96 % 0.07 in /  1.78 mm
22:56 37.3 °F /  2.9 °C 36.3 °F /  2.4 °C 29.49 in /  998.5 hPa ENE 14.3 mph /  23 km/h 23.0 mph /  37 km/h 96 % 0.09 in /  2.29 mm
23:01 37.3 °F /  2.9 °C 36.3 °F /  2.4 °C 29.49 in /  998.5 hPa East 18.6 mph /  29.9 km/h 24.0 mph /  38.6 km/h 96 % 0.08 in /  2.03 mm
23:06 37.3 °F /  2.9 °C 36.3 °F /  2.4 °C 29.49 in /  998.5 hPa ENE 15.5 mph /  24.9 km/h 26.5 mph /  42.6 km/h 96 % 0.08 in /  2.03 mm
23:11 37.3 °F /  2.9 °C 36.3 °F /  2.4 °C 29.48 in /  998.2 hPa ENE 14.6 mph /  23.5 km/h 19.0 mph /  30.6 km/h 96 % 0.09 in /  2.29 mm
23:16 37.4 °F /  3 °C 36.4 °F /  2.4 °C 29.48 in /  998.2 hPa ENE 16.0 mph /  25.7 km/h 26.5 mph /  42.6 km/h 96 % 0.09 in /  2.29 mm
23:21 37.5 °F /  3.1 °C 36.5 °F /  2.5 °C 29.48 in /  998.2 hPa ENE 16.8 mph /  27 km/h 22.0 mph /  35.4 km/h 96 % 0.09 in /  2.29 mm
23:26 37.5 °F /  3.1 °C 36.5 °F /  2.5 °C 29.47 in /  997.9 hPa ENE 18.0 mph /  29 km/h 24.2 mph /  38.9 km/h 96 % 0.09 in /  2.29 mm
23:32 37.5 °F /  3.1 °C 36.5 °F /  2.5 °C 29.47 in /  997.9 hPa ENE 16.7 mph /  26.9 km/h 23.0 mph /  37 km/h 96 % 0.09 in /  2.29 mm
23:37 37.5 °F /  3.1 °C 36.5 °F /  2.5 °C 29.47 in /  997.9 hPa NE 15.5 mph /  24.9 km/h 19.6 mph /  31.5 km/h 96 % 0.10 in /  2.54 mm
23:42 37.6 °F /  3.1 °C 36.6 °F /  2.6 °C 29.46 in /  997.5 hPa ENE 12.9 mph /  20.8 km/h 19.6 mph /  31.5 km/h 96 % 0.10 in /  2.54 mm
23:47 37.6 °F /  3.1 °C 36.6 °F /  2.6 °C 29.45 in /  997.2 hPa ENE 17.5 mph /  28.2 km/h 26.5 mph /  42.6 km/h 96 % 0.10 in /  2.54 mm
23:52 37.6 °F /  3.1 °C 36.6 °F /  2.6 °C 29.45 in /  997.2 hPa NE 13.5 mph /  21.7 km/h 20.7 mph /  33.3 km/h 96 % 0.10 in /  2.54 mm
23:57 37.7 °F /  3.2 °C 36.7 °F /  2.6 °C 29.45 in /  997.2 hPa East 15.3 mph /  24.6 km/h 24.2 mph /  38.9 km/h 96 % 0.10 in /  2.54 mm
Crab Meadow Weather
Compliments of Weather Underground - 3 mb

Script developed by  Jim McMurry - jmcmurry@mwt.net Adapted for the template by  Wim van der Kuil - Leuven-Template.eu

Astronomy: One year on Pluto is equal to 248 Earth years.